Location: Unspecified
(38.9820°N, 94.4650°W)
Time: 05:05:58
(UTC-05:00)

Hubble Space Telescope - Visible Passes

Search period start: 21 July 2018 00:00
Search period end: 31 July 2018 00:00
Orbit: 537 x 541 km, 28.5° (Epoch: 20 July)

Date Brightness Start Highest point End Pass type
(mag) Time Alt. Az. Time Alt. Az. Time Alt. Az.
21 Jul 3.0 04:02:44 13° SE 04:02:44 13° SE 04:03:29 10° SE visible
22 Jul 2.8 05:28:57 10° SW 05:30:36 12° SSW 05:32:14 10° S visible
23 Jul 2.9 05:19:31 10° SSW 05:20:06 10° SSW 05:20:41 10° S visible
28 Jul 3.0 21:35:01 10° SSE 21:35:05 10° SSE 21:35:05 10° SSE visible
29 Jul 2.8 21:23:11 10° S 21:24:46 12° SSE 21:25:45 11° SSE visible
30 Jul 2.7 21:12:10 10° SSW 21:14:16 14° SSE 21:16:15 10° SE visible
